If you wish to contribute or participate in the discussions about articles you are invited to join SKYbrary as a registered user

 Actions

Malvinas Argentinas Airport

From SKYbrary Wiki

SAWH
Airport
ICAO: SAWH – IATA: USH
Summary
Name Malvinas Argentinas Airport
Region South America and Caribbean
Territory Argentina AR.gif
Location Ushuaia, Tierra del Fuego
Serving Ushuaia
Elevation 31.09 m
102 ft
102 ft31.09 m
Type medium airport
Coordinates 54° 50' 35.80" S, 68° 17' 44.70" W
Runways
Designator Length Width Surface ROPS
7/25 2800 m9,186.352 ft
45 m147.638 ft
CON yes/yes


METAR
Observation SAWH 242100Z 23035G45KT 9999 -DZ FEW030 SCT040 08/04 Q0994
Station Ushuaia Aerodrome
Date/Time 24 February 2020 21:00:00
Wind direction 230°
Wind speed 35 kts
Lowest cloud amount few clouds
Temperature 8°C
Dew point 4°C
Humidity 75%
QNH 994 hPa
Weather condition light drizzle

Airport 4km 2.16 nm
4,000 m
13,123.36 ft
south of Ushuaia, Tierra del Fuego, Argentina.

Climatology

Tundra climate (Köppen climate classification ET).

Maps

Terrain

Loading map...

Airport Layout

Loading map...


Accidents & Serious Incidents at or in vicinity of SAWH

None on SKYbrary